STARLINK-32293, 61526

Orbit data source: Space-Track

STARLINK-32293, 61526 is a payload satellite owned by SpaceX/Seattle (US) in LEO that was launched on Tue, 15 Oct 2024 UTC via an FALCON 9 launch vehicle from the Air Force Eastern Test Range (AFETR). Payload-class satellites include a variety of spacecraft equipped with specific instruments for various scientific and technological missions. These include communications satellites like Starlink; space stations such as the ISS; scientific satellites like the Hubble; Earth observation satellites from companies like Planet Labs, Umbra, and HawkEye 360; GPS; miniature CubeSats for education and research; and military/defense satellites.

Loading next visibility...
Identifier
61526, 2024-183T
Orbit
LEO
Country
Flag of USUS
Related business
Manufacturer
SpaceX/Seattle
Mission
Operational Commercial Communications
Bus & Motor
STARLINK V2M, Unknown motor
Mass
730 kg wet, ~700 kg dry
Launch date (UTC)
2024-10-15 (1 year ago)
Launch vehicle
FALCON 9
Launch site
Air Force Eastern Test Range (AFETR)
Object type
Payload
Rocket body
Debris
Shape & HBR
Box + 2 Pan, 17.7 m
Radar Cross Section
33.884 m², Large (>1 m²)

Expand to show TLE details & history
Last TLE update: 12 hours ago

TLE from 12 hours ago
0 STARLINK-32293
1 61526U 24183T   25346.86030201 -.00000700  00000-0 -11513-4 0  9992
2 61526  53.1582 186.0952 0000930 103.4731 256.6374 15.30188062 66355
Epoch: 2025-12-12T20:38Z
TLE epoch observation values (Epoch: 2025-12-12T20:38:50.093Z)
Latitude
0.00002°
Longitude
154.59063°
Altitude
476.298 km
Speed
7.629 km/s
True Right ascension
12h 24m 22s
True Declination
0° 00' 00"
Sunlit
Object was in daylight at epoch
Visualization orbit readout
Latitude
Unknown
Longitude
Unknown
Altitude
Unknown
Speed
Unknown
Apparent Right ascension
Unknown
Apparent Declination
Unknown
Sunlit
N/A
Visualization observer readout
Local Sidereal Time
07:27:30
Azimuth
Unknown
Elevation
Unknown
Doppler factor
Unknown
Orbital elements
Apogee altitude
476.145 km
Perigee altitude
474.87 km
Semi-major axis
6,853.644 km
Eccentricity
0.00009
Inclination
53.1582°
RAAN
186.0952°
Arg. of periapsis
103.4731°
True anomaly
256.62703°
Mean anomaly
256.6374°
Eccentric anomaly
256.63222°
Mean motion
3.82526 °/min
Orbital period
94.11 mins
BSTAR
-0.000011513
Loading maneuver chart data...
Computing Atmospheric mass density...
Loading historical data...
Loading historical data...
Loading historical data...
Loading historical data...
Loading historical data...
Loading historical data...
Loading historical data...

Documentation

Showing up to 5 results
|